Location: Newark
(31.5350°N, 35.0986°E)
Time: 21:59:34
(UTC+00:00)

Vanguard 1 Rocket - Visible Passes

Search period start: 15 September 2019 00:00
Search period end: 25 September 2019 00:00
Orbit: 652 x 4225 km, 34.3° (Epoch: 15 September)

Date Brightness Start Highest point End Pass type
(mag) Time Alt. Az. Time Alt. Az. Time Alt. Az.
15 Sep 9.4 16:25:09 10° WSW 16:45:21 77° SSE 16:54:28 15° ENE visible
15 Sep 8.7 18:59:41 10° W 19:11:45 66° WNW 19:11:45 66° WNW visible
16 Sep 8.8 17:43:45 10° W 18:00:55 83° NNW 18:04:31 46° ENE visible
16 Sep 10.0 20:17:29 10° WNW 20:21:48 24° WNW 20:21:48 24° WNW visible
17 Sep 9.4 16:27:25 10° WSW 16:48:11 85° SSE 16:57:16 16° ENE visible
17 Sep 8.8 19:02:31 10° W 19:14:33 64° WNW 19:14:33 64° WNW visible
18 Sep 8.8 17:46:28 10° W 18:03:56 79° N 18:07:16 49° ENE visible
18 Sep 10.1 20:20:17 10° WNW 20:24:33 23° WNW 20:24:33 23° WNW visible
19 Sep 9.5 16:29:53 10° WSW 16:51:04 88° NNW 16:59:59 18° ENE visible
19 Sep 8.9 19:05:19 10° W 19:17:15 62° WNW 19:17:15 62° WNW visible
20 Sep 8.7 17:49:15 10° W 18:06:58 78° N 18:09:56 54° ENE visible
20 Sep 10.2 20:23:03 10° WNW 20:27:13 23° WNW 20:27:13 23° WNW visible
21 Sep 9.5 16:32:29 10° W 16:53:58 83° N 17:02:37 21° ENE visible
21 Sep 9.0 19:08:04 10° WNW 19:19:53 59° WNW 19:19:53 59° WNW visible
22 Sep 8.7 17:52:00 10° W 18:10:01 79° N 18:12:34 59° ENE visible
22 Sep 10.3 20:25:49 10° WNW 20:29:49 21° W 20:29:49 21° W visible
23 Sep 9.6 16:35:10 10° W 16:56:56 81° N 17:05:13 24° E visible
23 Sep 9.1 19:10:45 10° WNW 19:22:30 56° W 19:22:30 56° W visible
24 Sep 8.7 17:54:43 10° W 18:13:04 83° N 18:15:09 66° E visible
24 Sep 10.4 20:28:38 10° WNW 20:32:25 20° W 20:32:25 20° W visible
